Regional Weather Roundup
Issued by NWS

Home | Current Version | Previous Version | Graphics & Text | Print | Product List | Glossary Off
Versions: 1 2 3 4 5 6 7 8 9 10 11 12 13 14 15 16 17 18 19 20 21 22 23 24 25 26 27 28 29 30 31 32 33 34 35 36 37 38 39 40 41 42 43 44 45 46 47 48 49 50

689
ASUS43 KMKX 251300
RWRWI

WISCONSIN REGIONAL WEATHER ROUNDUP
NATIONAL WEATHER SERVICE MILWAUKEE/SULLIVAN WI
800 AM CDT THU AUG 25 2016

NOTE: "FAIR" INDICATES FEW OR NO CLOUDS BELOW 12,000 FEET WITH NO
SIGNIFICANT WEATHER AND/OR OBSTRUCTIONS TO VISIBILITY.

WIZ001-002-006>008-014>016-023>028-251400-
NORTHWEST WISCONSIN

CITY           SKY/WX    TMP DP  RH WIND       PRES   REMARKS
SUPERIOR ARPT  SUNNY     58  56  94 SW5       29.96R
ASHLAND        SUNNY     61  57  87 SW7       29.96S
HAYWARD        SUNNY     59  56  89 SW6       29.99F
SIREN          SUNNY     61  58  90 SW6       30.00S
CUMBERLAND     SUNNY     57  55  94 CALM      30.01F
RICE LAKE      SUNNY     58  57  96 CALM      30.02F FOG
CHETEK         NOT AVBL
LADYSMITH      SUNNY     58  57  96 CALM      30.03S
EAU CLAIRE     NOT AVBL
MENOMONIE      SUNNY     64  59  84 SW3       30.02S
NEW RICHMOND   SUNNY     61  61  99 S3        30.01F
OSCEOLA        SUNNY     58  58 100 CALM      30.03F
$$

WIZ003>005-009-010-017-018-251400-
NORTH CENTRAL WISCONSIN

CITY           SKY/WX    TMP DP  RH WIND       PRES   REMARKS
MANITOWISH WTR NOT AVBL
ARBOR VITAE    SUNNY     57  56  97 CALM      30.00F
WOODRUFF       SUNNY     57  56  97 CALM      30.00F
RHINELANDER    SUNNY     60  59  96 W7        30.01F
EAGLE RIVER    SUNNY     58  58 100 SW7       30.00S
LAND O LAKES   SUNNY     56  56 100 CALM      30.00F
PHILLIPS       SUNNY     59  57  92 SW5       30.01S
TOMAHAWK       SUNNY     56  55  96 CALM      30.02S
MEDFORD        SUNNY     58  58 100 CALM      30.02S
MERRILL        SUNNY     60  59  97 W5        30.02S
$$

WIZ029-030-035-036-043>047-251400-
CENTRAL WISCONSIN

CITY           SKY/WX    TMP DP  RH WIND       PRES   REMARKS
WAUSAU         SUNNY     61  57  87 NW6       30.00S
MOSINEE        SUNNY     61  59  94 NW7       30.02S
MARSHFIELD     CLOUDY    63  58  83 NW7       30.01F
STEVENS POINT  SUNNY     61  57  87 CALM      30.02S
WAUPACA        CLOUDY    65  63  92 CALM      30.01S
WAUTOMA        CLOUDY    64  60  87 W3        30.03R
WISC RAPIDS    CLOUDY    64  60  87 NW3       30.03S
CAMP DOUGLAS   NOT AVBL
$$

WIZ011>013-019>022-031-037>040-048>050-251400-
NORTHEAST WISCONSIN

CITY           SKY/WX    TMP DP  RH WIND       PRES   REMARKS
ANTIGO         CLOUDY    59  57  94 CALM      30.02R
SHAWANO        CLOUDY    64  60  84 W5        29.99S
OCONTO         NOT AVBL
STURGEON BAY   CLOUDY    66  61  84 W7        29.98R
GREEN BAY      CLOUDY    65  64  97 W6        29.98S
MANITOWOC      NOT AVBL
APPLETON       MOSUNNY   64  63  94 W6        29.99S
CLINTONVILLE   MOSUNNY   63  59  88 CALM      30.00S
OSHKOSH        MOSUNNY   66  61  84 W6        29.99F
$$

WIZ032>034-041-042-053>061-251400-
SOUTHWEST WISCONSIN

CITY           SKY/WX    TMP DP  RH WIND       PRES   REMARKS
LA CROSSE      PTSUNNY   67  32  27 CALM      30.03S
SPARTA         CLOUDY    58  58  99 CALM      30.04S
VIROQUA        PTSUNNY   62  62  99 CALM      30.05S
BOSCOBEL       PTSUNNY   65  63  93 CALM      30.04S
PRAIRIE DU CHI MOSUNNY   63  60  90 CALM      30.04S
PLATTEVILLE    MOSUNNY   65  64  99 NW3       30.05R
$$

WIZ056-057-062-063-064-067-068-251400-
SOUTH CENTRAL WISCONSIN

CITY           SKY/WX    TMP DP  RH WIND       PRES   REMARKS
REEDSBURG      NOT AVBL
BARABOO/DELLS  PTSUNNY   65  60  82 NW5       30.03F
LONE ROCK      NOT AVBL
MINERAL POINT  PTSUNNY   64  63  94 NW3       30.05S
MADISON        PTSUNNY   67  61  81 NW6       30.02S
MIDDLETON      MOSUNNY   66  63  90 CALM      30.03S
WATERTOWN      CLOUDY    66  63  89 NW7       30.01S
MONROE         MOSUNNY   68  61  77 N6        30.03R
JANESVILLE     PTSUNNY   70  66  88 NW8       30.01R
$$

WIZ051-052-058>065-066-070>072-251400-
SOUTHEAST WISCONSIN

CITY           SKY/WX    TMP DP  RH WIND       PRES   REMARKS
MILWAUKEE      CLOUDY    71  68  90 NW6       29.98S
WAUKESHA       PTSUNNY   66  63  88 W3        30.00S
MILWAUKEE/TIMM MOSUNNY   70  63  78 W6        30.00S
RACINE         LGT RAIN  70  67  90 W3        30.00R
BURLINGTON     CLOUDY    66  65  97 NW3       29.99S
KENOSHA        CLOUDY    69  67  93 NW5       29.99S
FOND DU LAC    PTSUNNY   66  61  84 NW5       30.00S
SHEBOYGAN      CLOUDY    68  62  81 NW7       29.99R
WEST BEND      CLOUDY    68  61  77 NW7       30.00S
JUNEAU         CLOUDY    64  60  88 CALM      30.03R
$$

LSZ147-162-251400-
LAKE SUPERIOR

STATION/POSITION TIME  TEMP    WIND        PRES    WAVE
                       AIR SEA DIR/SP/G            HT/PER
                 (UTC) (F)     (DEG/KT/KT) (MB)    (FT/S)
W MID LAKE BUOY  1150   67 68  250/ 16/ 17 1011.7R   3/ 4
DEVILS ISLAND    1200   65     230/ 15/ 18 1013.2R
PORT WING        1240   62     200/  6/  8 1014.2R
SAXON HARBOR     1240   63     200/  7/ 11 1014.2R
$$

LMZ867-665-643>646-251400-
LAKE MICHIGAN

STATION/POSITION TIME  TEMP    WIND        PRES    WAVE
                       AIR SEA DIR/SP/G            HT/PER
                 (UTC) (F)     (DEG/KT/KT) (MB)    (FT/S)
CHAMBERS ISLAND  1240   66     270/  1/  7 1014.2R
N MID LAKE BUOY  1150   69 69  280/ 14/ 16 1012.3F   2/ 6
NORTHPORT PIER   1100   69     300/  8/ 11 1013.2R
SISTER BAY       1207   68     330/ 15/ 17   N/A
KEWAUNEE LAKESHO 1200   66     300/  5/  8 1014.2R
SHEBOYGAN LAKESH 1200   69     290/  9/ 11 1014.4R
PORT WASHINGTON  1200   71     290/  6/ 10 1015.9R
ATWATER BUOY     1200   64 56  290/  4/  4   N/A
MILWAUKEE LAKESH 1210   71     290/  5/  6   N/A
S MID LAKE BUOY  1150   72 74  280/  2/  4 1013.6F   1/ 4
KENOSHA   LAKESH 1200   70     310/  3/ 10 1014.9R
$$

TC  - TEMPERATURE IN CELSIUS
VSB - VISIBILITY IN STATUTE MILES
WCI - WIND CHILL INDEX
HX  - HEAT INDEX





USA.gov is the U.S. government's official web portal to all federal, state and local government web resources and services.